Year,Month,Day,Hour,Minute,Value (Times are PST for temperature in C)
2022,02,01,00,00,1.60
2022,02,01,00,01,1.60
2022,02,01,00,02,1.90
2022,02,01,00,03,1.80
2022,02,01,00,04,1.70
2022,02,01,00,05,1.50
2022,02,01,00,06,1.50
2022,02,01,00,07,1.50
2022,02,01,00,08,1.50
2022,02,01,00,09,1.40
2022,02,01,00,10,1.50
2022,02,01,00,11,1.50
2022,02,01,00,12,1.50
2022,02,01,00,13,1.40
2022,02,01,00,14,1.40
2022,02,01,00,15,1.60
2022,02,01,00,16,1.70
2022,02,01,00,17,1.20
2022,02,01,00,18,1.20
2022,02,01,00,19,1.20
2022,02,01,00,20,1.10
2022,02,01,00,21,1.10
2022,02,01,00,22,0.90
2022,02,01,00,23,0.90
2022,02,01,00,24,1.20
2022,02,01,00,25,0.90
2022,02,01,00,26,0.90
2022,02,01,00,27,0.80
2022,02,01,00,28,0.80
2022,02,01,00,29,0.80
2022,02,01,00,30,0.70
2022,02,01,00,31,0.60
2022,02,01,00,32,0.60
2022,02,01,00,33,0.60
2022,02,01,00,34,0.50
2022,02,01,00,35,0.50
2022,02,01,00,36,0.60
2022,02,01,00,37,0.60
2022,02,01,00,38,0.40
2022,02,01,00,39,0.40
2022,02,01,00,40,0.30
2022,02,01,00,41,0.30
2022,02,01,00,42,0.30
2022,02,01,00,43,0.30
2022,02,01,00,44,0.30
2022,02,01,00,45,0.20
2022,02,01,00,46,0.20
2022,02,01,00,47,0.30
2022,02,01,00,48,0.30
2022,02,01,00,49,0.00
2022,02,01,00,50,-0.10
2022,02,01,00,51,-0.20
2022,02,01,00,52,-0.20
2022,02,01,00,53,-0.20
2022,02,01,00,54,-0.20
2022,02,01,00,55,-0.20
2022,02,01,00,56,-0.20
2022,02,01,00,57,-0.40
2022,02,01,00,58,-0.40
2022,02,01,00,59,-0.30
2022,02,01,01,00,-0.20
2022,02,01,01,01,-0.20
2022,02,01,01,02,-0.10
2022,02,01,01,03,-0.30
2022,02,01,01,04,-0.30
2022,02,01,01,05,-0.30
2022,02,01,01,06,-0.20
2022,02,01,01,07,-0.30
2022,02,01,01,08,-0.30
2022,02,01,01,09,-0.30
2022,02,01,01,10,-0.40
2022,02,01,01,11,-0.30
2022,02,01,01,12,-0.40
2022,02,01,01,13,-0.30
2022,02,01,01,14,-0.40
2022,02,01,01,15,-0.30
2022,02,01,01,16,-0.30
2022,02,01,01,17,-0.30
2022,02,01,01,18,-0.30
2022,02,01,01,19,-0.20
2022,02,01,01,20,-0.20
2022,02,01,01,21,-0.10
2022,02,01,01,22,-0.10
2022,02,01,01,23,0.00
2022,02,01,01,24,0.10
2022,02,01,01,25,0.20
2022,02,01,01,26,0.30
2022,02,01,01,27,0.40
2022,02,01,01,28,0.40
2022,02,01,01,29,0.50
2022,02,01,01,30,0.60
2022,02,01,01,31,0.60
2022,02,01,01,32,0.70
2022,02,01,01,33,0.70
2022,02,01,01,34,0.80
2022,02,01,01,35,0.80
2022,02,01,01,36,0.70
2022,02,01,01,37,0.70
2022,02,01,01,38,0.80
2022,02,01,01,39,0.80
2022,02,01,01,40,0.90
2022,02,01,01,41,0.80
2022,02,01,01,42,0.90
2022,02,01,01,43,0.90
2022,02,01,01,44,0.80
2022,02,01,01,45,0.80
2022,02,01,01,46,0.90
2022,02,01,01,47,0.80
2022,02,01,01,48,0.80
2022,02,01,01,49,0.90
2022,02,01,01,50,0.90
2022,02,01,01,51,0.90
2022,02,01,01,52,0.90
2022,02,01,01,53,0.90
2022,02,01,01,54,1.00
2022,02,01,01,55,0.90
2022,02,01,01,56,0.90
2022,02,01,01,57,0.90
2022,02,01,01,58,1.00
2022,02,01,01,59,1.20
2022,02,01,02,00,1.10
2022,02,01,02,01,1.00
2022,02,01,02,02,1.10
2022,02,01,02,03,1.10
2022,02,01,02,04,1.20
2022,02,01,02,05,1.20
2022,02,01,02,06,1.00
2022,02,01,02,07,1.00
2022,02,01,02,08,1.10
2022,02,01,02,09,1.00
2022,02,01,02,10,1.20
2022,02,01,02,11,1.40
2022,02,01,02,12,1.40
2022,02,01,02,13,1.40
2022,02,01,02,14,1.40
2022,02,01,02,15,1.30
2022,02,01,02,16,1.30
2022,02,01,02,17,1.40
2022,02,01,02,18,1.30
2022,02,01,02,19,1.40
2022,02,01,02,20,1.50
2022,02,01,02,21,1.50
2022,02,01,02,22,1.50
2022,02,01,02,23,1.50
2022,02,01,02,24,1.40
2022,02,01,02,25,1.60
2022,02,01,02,26,1.50
2022,02,01,02,27,1.50
2022,02,01,02,28,1.50
2022,02,01,02,29,1.60
2022,02,01,02,30,1.40
2022,02,01,02,31,1.50
2022,02,01,02,32,1.50
2022,02,01,02,33,1.70
2022,02,01,02,34,1.70
2022,02,01,02,35,1.50
2022,02,01,02,36,1.40
2022,02,01,02,37,1.50
2022,02,01,02,38,1.50
2022,02,01,02,39,1.30
2022,02,01,02,40,1.30
2022,02,01,02,41,1.30
2022,02,01,02,42,1.30
2022,02,01,02,43,1.30
2022,02,01,02,44,1.40
2022,02,01,02,45,1.50
2022,02,01,02,46,1.40
2022,02,01,02,47,1.40
2022,02,01,02,48,1.50
2022,02,01,02,49,1.60
2022,02,01,02,50,1.50
2022,02,01,02,51,1.60
2022,02,01,02,52,1.70
2022,02,01,02,53,1.70
2022,02,01,02,54,1.90
2022,02,01,02,55,2.10
2022,02,01,02,56,1.90
2022,02,01,02,57,1.80
2022,02,01,02,58,1.80
2022,02,01,02,59,1.90
2022,02,01,03,00,1.80
2022,02,01,03,01,1.80
2022,02,01,03,02,1.90
2022,02,01,03,03,1.90
2022,02,01,03,04,2.00
2022,02,01,03,05,2.20
2022,02,01,03,06,2.00
2022,02,01,03,07,1.90
2022,02,01,03,08,2.00
2022,02,01,03,09,2.10
2022,02,01,03,10,1.90
2022,02,01,03,11,2.00
2022,02,01,03,12,1.70
2022,02,01,03,13,1.40
2022,02,01,03,14,1.50
2022,02,01,03,15,1.70
2022,02,01,03,16,2.40
2022,02,01,03,17,2.60
2022,02,01,03,18,2.10
2022,02,01,03,19,1.90
2022,02,01,03,20,1.70
2022,02,01,03,21,1.90
2022,02,01,03,22,1.70
2022,02,01,03,23,1.50
2022,02,01,03,24,1.50
2022,02,01,03,25,1.20
2022,02,01,03,26,1.30
2022,02,01,03,27,1.00
2022,02,01,03,28,0.90
2022,02,01,03,29,0.90
2022,02,01,03,30,1.00
2022,02,01,03,31,1.10
2022,02,01,03,32,1.10
2022,02,01,03,33,1.20
2022,02,01,03,34,1.40
2022,02,01,03,35,1.50
2022,02,01,03,36,1.90
2022,02,01,03,37,3.10
2022,02,01,03,38,4.60
2022,02,01,03,39,3.30
2022,02,01,03,40,2.40
2022,02,01,03,41,3.60
2022,02,01,03,42,2.90
2022,02,01,03,43,3.80
2022,02,01,03,44,6.90
2022,02,01,03,45,6.50
2022,02,01,03,46,6.70
2022,02,01,03,47,7.20
2022,02,01,03,48,6.90
2022,02,01,03,49,5.70
2022,02,01,03,50,5.30
2022,02,01,03,51,5.30
2022,02,01,03,52,5.30
2022,02,01,03,53,5.30
2022,02,01,03,54,5.30
2022,02,01,03,55,5.30
2022,02,01,03,56,5.30
2022,02,01,03,57,5.30
2022,02,01,03,58,5.30
2022,02,01,03,59,5.30
2022,02,01,04,00,5.30
2022,02,01,08,56,6.70
2022,02,01,08,57,7.60
2022,02,01,08,58,9.20
2022,02,01,08,59,7.60
2022,02,01,09,00,7.40
2022,02,01,09,01,7.40
2022,02,01,09,02,7.40
2022,02,01,09,03,19.60
2022,02,01,09,04,4.10
2022,02,01,09,05,3.80
2022,02,01,09,06,3.80
2022,02,01,09,07,3.00
2022,02,01,09,08,2.90
2022,02,01,09,09,9.90
2022,02,01,09,10,9.90
2022,02,01,09,11,6.50
2022,02,01,09,12,8.70
2022,02,01,09,13,8.70
2022,02,01,09,14,8.70
2022,02,01,09,15,8.50
2022,02,01,09,16,6.00
2022,02,01,09,17,3.70
2022,02,01,09,18,3.50
2022,02,01,09,19,4.30
2022,02,01,09,20,4.20
2022,02,01,09,21,3.90
2022,02,01,09,22,3.60
2022,02,01,09,23,3.50
2022,02,01,09,24,3.20
2022,02,01,09,25,4.40
2022,02,01,09,26,4.10
2022,02,01,09,27,3.60
2022,02,01,09,28,3.40
2022,02,01,09,29,3.40
2022,02,01,09,30,3.20
2022,02,01,09,31,2.90
2022,02,01,09,32,2.80
2022,02,01,09,33,2.70
2022,02,01,09,34,2.90
2022,02,01,09,35,3.20
2022,02,01,09,36,3.20
2022,02,01,09,37,3.30
2022,02,01,09,38,3.50
2022,02,01,09,39,3.80
2022,02,01,09,40,3.60
2022,02,01,09,41,3.90
2022,02,01,09,42,4.00
2022,02,01,09,43,3.90
2022,02,01,09,44,4.60
2022,02,01,09,45,4.40
2022,02,01,09,46,3.70
2022,02,01,09,47,4.30
2022,02,01,09,48,4.50
2022,02,01,09,49,4.50
2022,02,01,09,50,4.20
2022,02,01,09,51,4.10
2022,02,01,09,52,4.70
2022,02,01,09,53,4.90
2022,02,01,09,54,5.60
2022,02,01,09,55,5.90
2022,02,01,09,56,6.10
2022,02,01,09,57,7.20
2022,02,01,09,58,7.20
2022,02,01,09,59,7.20
2022,02,01,10,00,7.20
2022,02,01,10,01,5.80
2022,02,01,10,02,3.90
2022,02,01,10,03,3.90
2022,02,01,10,04,3.90
2022,02,01,10,05,3.90
2022,02,01,10,06,11.70
2022,02,01,10,07,15.00
2022,02,01,10,08,14.90
2022,02,01,10,09,14.90
2022,02,01,10,10,14.90
2022,02,01,10,11,14.90
2022,02,01,10,12,12.70
2022,02,01,10,13,35.50
2022,02,01,10,14,39.90
2022,02,01,10,15,19.60
2022,02,01,10,16,8.80
2022,02,01,10,17,8.80
2022,02,01,10,18,27.50
2022,02,01,10,19,29.10
2022,02,01,10,20,29.10
2022,02,01,10,21,29.10
2022,02,01,10,22,29.10
2022,02,01,10,23,29.10
2022,02,01,10,24,30.00
2022,02,01,10,25,37.30
2022,02,01,10,26,37.30
2022,02,01,10,27,37.30
2022,02,01,10,28,38.60
2022,02,01,10,29,38.90
2022,02,01,10,30,38.90
2022,02,01,10,31,27.90
2022,02,01,10,32,23.10
2022,02,01,10,33,23.10
2022,02,01,10,34,23.10
2022,02,01,10,35,23.10
2022,02,01,10,36,20.70
2022,02,01,10,37,10.70
2022,02,01,10,38,10.70
2022,02,01,10,39,9.30
2022,02,01,10,40,5.70
2022,02,01,10,41,4.90
2022,02,01,10,42,6.10
2022,02,01,10,43,5.50
2022,02,01,10,44,4.40
2022,02,01,10,45,4.50
2022,02,01,10,46,4.40
2022,02,01,10,47,4.40
2022,02,01,10,48,4.60
2022,02,01,10,49,5.00
2022,02,01,10,50,4.80
2022,02,01,10,51,4.40
2022,02,01,10,52,4.60
2022,02,01,10,53,4.60
2022,02,01,10,54,4.40
2022,02,01,10,55,4.40
2022,02,01,10,56,4.50
2022,02,01,10,57,4.90
2022,02,01,10,58,4.70
2022,02,01,10,59,4.70
2022,02,01,11,00,5.20
2022,02,01,11,01,5.00
2022,02,01,11,02,4.70
2022,02,01,11,03,4.60
2022,02,01,11,04,4.60
2022,02,01,11,05,4.70
2022,02,01,11,06,4.70
2022,02,01,11,07,4.40
2022,02,01,11,08,4.60
2022,02,01,11,09,5.00
2022,02,01,11,10,5.00
2022,02,01,11,11,6.10
2022,02,01,11,12,6.00
2022,02,01,11,13,6.50
2022,02,01,11,14,5.90
2022,02,01,11,15,9.30
2022,02,01,11,16,7.20
2022,02,01,11,17,7.30
2022,02,01,11,18,5.90
2022,02,01,11,19,5.80
2022,02,01,11,20,5.00
2022,02,01,11,21,5.30
2022,02,01,11,22,4.90
2022,02,01,11,23,5.40
2022,02,01,11,24,25.60
2022,02,01,11,25,34.10
2022,02,01,11,26,34.10
2022,02,01,11,27,34.10
2022,02,01,11,28,34.10
2022,02,01,11,29,37.50
2022,02,01,11,30,40.10
2022,02,01,11,31,40.10
2022,02,01,11,32,38.90
2022,02,01,11,33,29.90
2022,02,01,11,34,29.90
2022,02,01,11,35,31.20
2022,02,01,11,36,38.70
2022,02,01,11,37,38.70
2022,02,01,11,38,38.70
2022,02,01,11,39,38.70
2022,02,01,11,40,33.10
2022,02,01,11,41,31.40
2022,02,01,11,42,31.40
2022,02,01,11,43,31.40
2022,02,01,11,44,31.40
2022,02,01,11,45,31.40
2022,02,01,11,46,31.40
2022,02,01,11,47,31.40
2022,02,01,11,48,31.40
2022,02,01,11,49,39.80
2022,02,01,11,50,41.90
2022,02,01,11,51,41.90
2022,02,01,11,52,41.90
2022,02,01,11,53,41.90
2022,02,01,11,54,41.90
2022,02,01,11,55,41.90
2022,02,01,11,56,32.90
2022,02,01,11,57,21.70
2022,02,01,11,58,21.70
2022,02,01,11,59,9.90
2022,02,01,12,00,9.10
2022,02,01,12,01,5.80
2022,02,01,12,02,6.10
2022,02,01,12,03,6.10
2022,02,01,12,04,6.00
2022,02,01,12,05,5.90
2022,02,01,12,06,6.10
2022,02,01,12,07,6.20
2022,02,01,12,08,5.90
2022,02,01,12,09,5.80
2022,02,01,12,10,5.40
2022,02,01,12,11,6.30
2022,02,01,12,12,5.60
2022,02,01,12,13,5.60
2022,02,01,12,14,6.10
2022,02,01,12,15,6.40
2022,02,01,12,16,5.80
2022,02,01,12,17,5.50
2022,02,01,12,18,5.40
2022,02,01,12,19,5.50
2022,02,01,12,20,5.20
2022,02,01,12,21,5.20
2022,02,01,12,22,5.30
2022,02,01,12,23,5.10
2022,02,01,12,24,5.00
2022,02,01,12,25,5.00
2022,02,01,12,26,5.20
2022,02,01,12,27,5.10
2022,02,01,12,28,5.40
2022,02,01,12,29,5.10
2022,02,01,12,30,5.10
2022,02,01,12,31,4.90
2022,02,01,12,32,5.30
2022,02,01,12,33,5.10
2022,02,01,12,34,5.30
2022,02,01,12,35,5.30
2022,02,01,12,36,5.10
2022,02,01,12,37,5.20
2022,02,01,12,38,5.00
2022,02,01,12,39,5.50
2022,02,01,12,40,5.10
2022,02,01,12,41,5.10
2022,02,01,12,42,5.20
2022,02,01,12,43,5.10
2022,02,01,12,44,4.70
2022,02,01,12,45,4.80
2022,02,01,12,46,4.80
2022,02,01,12,47,4.80
2022,02,01,12,48,4.80
2022,02,01,12,49,4.80
2022,02,01,12,50,4.60
2022,02,01,12,51,4.70
2022,02,01,12,52,4.80
2022,02,01,12,53,4.70
2022,02,01,12,54,4.70
2022,02,01,12,55,4.70
2022,02,01,12,56,4.80
2022,02,01,12,57,4.80
2022,02,01,12,58,4.90
2022,02,01,12,59,4.90
2022,02,01,13,00,4.90
2022,02,01,13,01,4.90
2022,02,01,13,02,4.90
2022,02,01,13,03,4.90
2022,02,01,13,04,5.00
2022,02,01,13,05,4.90
2022,02,01,13,06,4.90
2022,02,01,13,07,4.90
2022,02,01,13,08,4.90
2022,02,01,13,09,5.00
2022,02,01,13,10,5.00
2022,02,01,13,11,5.10
2022,02,01,13,12,5.10
2022,02,01,13,13,5.10
2022,02,01,13,14,5.10
2022,02,01,13,15,5.00
2022,02,01,13,16,5.10
2022,02,01,13,17,5.10
2022,02,01,13,18,5.20
2022,02,01,13,19,5.20
2022,02,01,13,20,5.10
2022,02,01,13,21,5.10
2022,02,01,13,22,5.10
2022,02,01,13,23,5.10
2022,02,01,13,24,5.20
2022,02,01,13,25,5.20
2022,02,01,13,26,5.20
2022,02,01,13,27,5.20
2022,02,01,13,28,5.20
2022,02,01,13,29,5.20
2022,02,01,13,30,5.30
2022,02,01,13,31,5.30
2022,02,01,13,32,5.20
2022,02,01,13,33,5.20
2022,02,01,13,34,5.10
2022,02,01,13,35,5.40
2022,02,01,13,36,5.80
2022,02,01,13,37,5.60
2022,02,01,13,38,5.90
2022,02,01,13,39,6.30
2022,02,01,13,40,6.40
2022,02,01,13,41,6.00
2022,02,01,13,42,6.10
2022,02,01,13,43,6.60
2022,02,01,13,44,6.60
2022,02,01,13,45,6.60
2022,02,01,13,46,7.20
2022,02,01,13,47,6.40
2022,02,01,13,48,7.80
2022,02,01,13,49,6.30
2022,02,01,13,50,6.10
2022,02,01,13,51,6.20
2022,02,01,13,52,6.20
2022,02,01,13,53,6.20
2022,02,01,13,54,6.00
2022,02,01,13,55,6.50
2022,02,01,13,56,6.20
2022,02,01,13,57,6.50
2022,02,01,13,58,5.90
2022,02,01,13,59,6.10
2022,02,01,14,00,5.90
2022,02,01,14,01,6.10
2022,02,01,14,02,6.30
2022,02,01,14,03,5.80
2022,02,01,14,04,6.00
2022,02,01,14,05,5.80
2022,02,01,14,06,5.70
2022,02,01,14,07,6.00
2022,02,01,14,08,6.20
2022,02,01,14,09,6.90
2022,02,01,14,10,6.10
2022,02,01,14,11,6.20
2022,02,01,14,12,6.10
2022,02,01,14,13,5.80
2022,02,01,14,14,7.10
2022,02,01,14,15,7.60
2022,02,01,14,16,7.10
2022,02,01,14,17,6.10
2022,02,01,14,18,5.80
2022,02,01,14,19,6.10
2022,02,01,14,20,6.00
2022,02,01,14,21,6.60
2022,02,01,14,22,6.60
2022,02,01,14,23,6.60
2022,02,01,14,24,6.60
2022,02,01,14,25,6.60
2022,02,01,14,30,7.30
2022,02,01,14,31,8.10
2022,02,01,14,32,12.90
2022,02,01,14,33,12.90
2022,02,01,14,34,21.90
2022,02,01,14,35,24.60
2022,02,01,14,36,23.90
2022,02,01,14,37,7.40
2022,02,01,14,38,7.40
2022,02,01,14,39,7.40
2022,02,01,14,40,7.40
2022,02,01,14,41,7.40
2022,02,01,14,42,13.50
2022,02,01,14,43,40.60
2022,02,01,14,44,40.80
2022,02,01,14,45,39.30
2022,02,01,14,46,7.70
2022,02,01,14,47,15.80
2022,02,01,15,03,31.20
2022,02,01,15,04,31.20
2022,02,01,15,05,31.20
2022,02,01,15,06,14.70
2022,02,01,15,07,7.40
2022,02,01,15,08,16.90
2022,02,01,15,09,26.30
2022,02,01,15,10,25.70
2022,02,01,15,11,24.10
2022,02,01,15,21,10.10
2022,02,01,15,22,14.10
2022,02,01,15,23,18.60
2022,02,01,15,24,11.80
2022,02,01,15,25,11.80
2022,02,01,15,26,11.80
2022,02,01,15,27,11.80
2022,02,01,15,46,18.80
2022,02,01,15,47,18.80
2022,02,01,15,48,18.80
2022,02,01,15,52,6.20
2022,02,01,15,53,6.10
2022,02,01,15,54,6.20
2022,02,01,15,55,7.10
2022,02,01,15,56,9.30
2022,02,01,15,57,6.00
2022,02,01,15,58,5.90
2022,02,01,15,59,5.80
2022,02,01,16,00,6.20
2022,02,01,16,01,6.40
2022,02,01,16,02,6.40
2022,02,01,16,03,6.40
2022,02,01,16,04,6.40
2022,02,01,16,15,12.10
2022,02,01,16,16,12.10
2022,02,01,16,17,12.10
2022,02,01,16,18,11.70
2022,02,01,16,19,8.20
2022,02,01,16,20,7.30
2022,02,01,16,21,7.30
2022,02,01,16,22,7.30
2022,02,01,16,23,7.30
2022,02,01,16,24,7.30
2022,02,01,16,25,7.10
2022,02,01,16,26,5.90
2022,02,01,16,27,5.90
2022,02,01,16,30,5.20
2022,02,01,16,31,5.40
2022,02,01,16,32,6.10
2022,02,01,16,33,6.00
2022,02,01,16,34,6.00
2022,02,01,16,35,6.10
2022,02,01,16,36,5.20
2022,02,01,16,37,5.70
2022,02,01,16,38,6.60
2022,02,01,16,39,8.40
2022,02,01,16,40,10.70
2022,02,01,16,41,29.10
2022,02,01,16,42,17.20
2022,02,01,16,43,17.20
2022,02,01,16,44,17.20
2022,02,01,16,45,17.60
2022,02,01,16,46,18.40
2022,02,01,17,14,5.40
2022,02,01,17,15,5.90
2022,02,01,17,16,5.90
2022,02,01,17,17,5.90
2022,02,01,17,22,6.60
2022,02,01,17,23,5.90
2022,02,01,17,24,5.10
2022,02,01,17,25,5.10
2022,02,01,17,29,25.70
2022,02,01,17,30,25.70
2022,02,01,17,31,25.70
2022,02,01,17,32,25.70
2022,02,01,17,33,25.70
2022,02,01,17,34,25.70
2022,02,01,17,35,25.70
2022,02,01,17,36,25.70
2022,02,01,17,37,25.70
2022,02,01,17,44,4.20
2022,02,01,17,45,3.90
2022,02,01,17,46,4.10
2022,02,01,17,50,3.70
2022,02,01,17,51,3.80
2022,02,01,17,52,4.40
2022,02,01,17,53,17.40
2022,02,01,17,54,33.80
2022,02,01,18,06,18.10
2022,02,01,18,07,14.30
2022,02,01,18,08,14.30
2022,02,01,18,09,7.70
2022,02,01,18,10,4.00
2022,02,01,18,11,3.40
2022,02,01,18,12,3.30
2022,02,01,18,13,2.80
2022,02,01,18,14,2.60
2022,02,01,18,15,2.60
2022,02,01,18,16,2.60
2022,02,01,18,17,2.60
2022,02,01,18,18,2.60
2022,02,01,18,19,2.60
2022,02,01,18,25,14.90
2022,02,01,18,26,14.90
2022,02,01,18,27,14.90
2022,02,01,18,30,8.70
2022,02,01,18,38,6.90
2022,02,01,18,39,9.30
2022,02,01,18,40,9.10
2022,02,01,18,41,10.10
2022,02,01,18,42,10.90
2022,02,01,18,50,1.10
2022,02,01,18,51,1.10
2022,02,01,18,52,0.90
2022,02,01,18,53,0.80
2022,02,01,18,54,0.70
2022,02,01,18,55,0.70
2022,02,01,18,56,0.70
2022,02,01,18,57,0.80
2022,02,01,18,58,0.90
2022,02,01,18,59,0.90
2022,02,01,19,00,0.70
2022,02,01,19,01,0.80
2022,02,01,19,02,1.00
2022,02,01,19,03,1.30
2022,02,01,19,04,0.70
2022,02,01,19,05,0.80
2022,02,01,19,06,0.70
2022,02,01,19,07,2.50
2022,02,01,19,08,1.40
2022,02,01,19,09,2.10
2022,02,01,19,10,3.90
2022,02,01,19,11,0.50
2022,02,01,19,12,0.90
2022,02,01,19,13,0.60
2022,02,01,19,14,0.20
2022,02,01,19,15,0.40
2022,02,01,19,16,0.20
2022,02,01,19,17,0.30
2022,02,01,19,18,0.00
2022,02,01,19,19,0.10
2022,02,01,19,20,0.00
2022,02,01,19,21,0.70
2022,02,01,19,22,0.90
2022,02,01,19,23,0.50
2022,02,01,19,24,0.00
2022,02,01,19,25,0.30
2022,02,01,19,26,0.30
2022,02,01,19,27,1.20
2022,02,01,19,28,4.40
2022,02,01,19,29,2.20
2022,02,01,19,30,0.10
2022,02,01,19,31,0.00
2022,02,01,19,32,0.00
2022,02,01,19,33,0.10
2022,02,01,19,34,0.20
2022,02,01,19,35,0.20
2022,02,01,19,36,0.60
2022,02,01,19,37,0.50
2022,02,01,19,38,0.40
2022,02,01,19,39,-0.20
2022,02,01,19,40,-0.30
2022,02,01,19,41,-0.40
2022,02,01,19,42,-0.30
2022,02,01,19,43,-0.20
2022,02,01,19,44,-0.20
2022,02,01,19,45,0.00
2022,02,01,19,46,-0.20
2022,02,01,19,47,-0.20
2022,02,01,19,48,-0.10
2022,02,01,19,49,0.30
2022,02,01,19,50,-0.20
2022,02,01,19,51,0.00
2022,02,01,19,52,0.50
2022,02,01,19,53,0.60
2022,02,01,19,54,0.60
2022,02,01,19,55,0.80
2022,02,01,19,56,0.70
2022,02,01,19,57,0.80
2022,02,01,19,58,0.80
2022,02,01,19,59,0.70
2022,02,01,20,00,0.70
2022,02,01,20,01,0.70
2022,02,01,20,02,0.60
2022,02,01,20,03,0.80
2022,02,01,20,04,0.70
2022,02,01,20,05,0.60
2022,02,01,20,06,0.50
2022,02,01,20,07,1.00
2022,02,01,20,08,0.80
2022,02,01,20,09,0.80
2022,02,01,20,10,0.40
2022,02,01,20,11,0.70
2022,02,01,20,12,0.50
2022,02,01,20,13,0.80
2022,02,01,20,14,0.70
2022,02,01,20,15,0.90
2022,02,01,20,16,1.00
2022,02,01,20,17,1.00
2022,02,01,20,18,0.60
2022,02,01,20,19,0.30
2022,02,01,20,20,0.20
2022,02,01,20,21,0.00
2022,02,01,20,22,0.20
2022,02,01,20,23,0.20
2022,02,01,20,24,-0.10
2022,02,01,20,25,0.00
2022,02,01,20,26,-0.30
2022,02,01,20,27,0.00
2022,02,01,20,28,0.00
2022,02,01,20,29,-0.10
2022,02,01,20,30,-0.10
2022,02,01,20,31,-0.40
2022,02,01,20,32,-0.30
2022,02,01,20,33,-0.10
2022,02,01,20,34,-0.40
2022,02,01,20,35,-0.50
2022,02,01,20,36,-0.40
2022,02,01,20,37,-0.40
2022,02,01,20,38,-0.50
2022,02,01,20,39,-0.30
2022,02,01,20,40,0.60
2022,02,01,20,41,-0.30
2022,02,01,20,42,-0.30
2022,02,01,20,43,0.10
2022,02,01,20,44,-0.40
2022,02,01,20,45,-0.50
2022,02,01,20,46,-0.40
2022,02,01,20,47,-0.20
2022,02,01,20,48,-0.10
2022,02,01,20,49,-0.20
2022,02,01,20,50,-0.20
2022,02,01,20,51,-0.30
2022,02,01,20,52,-0.30
2022,02,01,20,53,0.10
2022,02,01,20,54,0.30
2022,02,01,20,55,0.30
2022,02,01,20,56,-0.20
2022,02,01,20,57,-0.40
2022,02,01,20,58,-0.30
2022,02,01,20,59,-0.40
2022,02,01,21,00,-0.40
2022,02,01,21,01,-0.50
2022,02,01,21,02,-0.60
2022,02,01,21,03,-0.60
2022,02,01,21,04,-0.60
2022,02,01,21,05,-0.30
2022,02,01,21,06,-0.40
2022,02,01,21,07,-0.40
2022,02,01,21,08,1.40
2022,02,01,21,09,-0.40
2022,02,01,21,10,-0.40
2022,02,01,21,11,-0.50
2022,02,01,21,12,-0.40
2022,02,01,21,13,-0.40
2022,02,01,21,14,-0.30
2022,02,01,21,15,0.10
2022,02,01,21,16,0.30
2022,02,01,21,17,0.10
2022,02,01,21,18,-0.20
2022,02,01,21,19,0.20
2022,02,01,21,20,-0.40
2022,02,01,21,21,-0.50
2022,02,01,21,22,-0.60
2022,02,01,21,23,-0.20
2022,02,01,21,24,-0.50
2022,02,01,21,25,-0.10
2022,02,01,21,26,-0.30
2022,02,01,21,27,0.00
2022,02,01,21,28,0.00
2022,02,01,21,29,-0.40
2022,02,01,21,30,-0.60
2022,02,01,21,31,-0.50
2022,02,01,21,32,-0.70
2022,02,01,21,33,-0.30
2022,02,01,21,34,0.00
2022,02,01,21,35,-0.10
2022,02,01,21,36,-0.60
2022,02,01,21,37,-0.30
2022,02,01,21,38,-0.40
2022,02,01,21,39,-0.20
2022,02,01,21,40,-0.20
2022,02,01,21,41,-0.30
2022,02,01,21,42,-0.50
2022,02,01,21,43,-0.30
2022,02,01,21,44,-0.20
2022,02,01,21,45,0.00
2022,02,01,21,46,-0.10
2022,02,01,21,47,-0.40
2022,02,01,21,48,-0.20
2022,02,01,21,49,-0.10
2022,02,01,21,50,-0.80
2022,02,01,21,51,-0.70
2022,02,01,21,52,-0.40
2022,02,01,21,53,-0.80
2022,02,01,21,54,-0.80
2022,02,01,21,55,-0.80
2022,02,01,21,56,-0.60
2022,02,01,21,57,-0.60
2022,02,01,21,58,-0.50
2022,02,01,21,59,-0.30
2022,02,01,22,00,-0.20
2022,02,01,22,01,-0.30
2022,02,01,22,02,-0.40
2022,02,01,22,03,-0.30
2022,02,01,22,04,-0.40
2022,02,01,22,05,-0.40
2022,02,01,22,06,-0.50
2022,02,01,22,07,-0.10
2022,02,01,22,08,-0.60
2022,02,01,22,09,-0.30
2022,02,01,22,10,-0.20
2022,02,01,22,11,-0.70
2022,02,01,22,12,-0.20
2022,02,01,22,13,-0.10
2022,02,01,22,14,-0.40
2022,02,01,22,15,-0.50
2022,02,01,22,16,-0.30
2022,02,01,22,17,0.00
2022,02,01,22,18,-0.10
2022,02,01,22,19,-0.40
2022,02,01,22,20,-0.20
2022,02,01,22,21,-0.30
2022,02,01,22,22,-0.30
2022,02,01,22,23,-0.30
2022,02,01,22,24,-0.20
2022,02,01,22,25,-0.20
2022,02,01,22,26,-0.30
2022,02,01,22,27,-0.30
2022,02,01,22,28,-0.40
2022,02,01,22,29,-0.60
2022,02,01,22,30,-0.50
2022,02,01,22,31,-0.20
2022,02,01,22,32,-0.30
2022,02,01,22,33,-0.30
2022,02,01,22,34,-1.00
2022,02,01,22,35,-1.30
2022,02,01,22,36,-1.40
2022,02,01,22,37,-1.30
2022,02,01,22,38,-0.80
2022,02,01,22,39,-0.80
2022,02,01,22,40,-0.60
2022,02,01,22,41,-0.60
2022,02,01,22,42,-0.60
2022,02,01,22,43,-1.20
2022,02,01,22,44,-1.20
2022,02,01,22,45,-0.90
2022,02,01,22,46,-0.50
2022,02,01,22,47,-1.10
2022,02,01,22,48,-1.20
2022,02,01,22,49,-1.10
2022,02,01,22,50,-1.10
2022,02,01,22,51,-1.00
2022,02,01,22,52,-1.40
2022,02,01,22,53,-1.20
2022,02,01,22,54,-1.00
2022,02,01,22,55,-0.80
2022,02,01,22,56,-1.10
2022,02,01,22,57,-1.40
2022,02,01,22,58,-1.60
2022,02,01,22,59,-1.30
2022,02,01,23,00,-1.20
2022,02,01,23,01,-1.30
2022,02,01,23,02,-1.10
2022,02,01,23,03,-1.40
2022,02,01,23,04,-1.40
2022,02,01,23,05,-1.10
2022,02,01,23,06,-1.00
2022,02,01,23,07,-1.00
2022,02,01,23,08,-1.20
2022,02,01,23,09,-1.50
2022,02,01,23,10,-1.50
2022,02,01,23,11,-1.30
2022,02,01,23,12,-1.40
2022,02,01,23,13,-1.60
2022,02,01,23,14,-1.70
2022,02,01,23,15,-1.40
2022,02,01,23,16,-1.70
2022,02,01,23,17,-1.60
2022,02,01,23,18,-1.10
2022,02,01,23,19,-0.90
2022,02,01,23,20,-1.40
2022,02,01,23,21,-1.20
2022,02,01,23,22,-0.90
2022,02,01,23,23,-0.90
2022,02,01,23,24,-0.90
2022,02,01,23,25,-1.00
2022,02,01,23,26,-0.90
2022,02,01,23,27,-1.30
2022,02,01,23,28,-1.10
2022,02,01,23,29,-1.20
2022,02,01,23,30,-1.20
2022,02,01,23,31,-1.00
2022,02,01,23,32,-1.00
2022,02,01,23,33,-1.00
2022,02,01,23,34,-0.50
2022,02,01,23,35,-0.40
2022,02,01,23,36,-0.80
2022,02,01,23,37,-0.80
2022,02,01,23,38,-0.40
2022,02,01,23,39,-0.30
2022,02,01,23,40,-0.40
2022,02,01,23,41,-0.60
2022,02,01,23,42,-0.50
2022,02,01,23,43,-0.60
2022,02,01,23,44,-0.80
2022,02,01,23,45,-0.60
2022,02,01,23,46,-0.40
2022,02,01,23,47,-0.60
2022,02,01,23,48,-0.70
2022,02,01,23,49,-0.70
2022,02,01,23,50,-1.10
2022,02,01,23,51,-1.30
2022,02,01,23,52,-1.10
2022,02,01,23,53,-1.30
2022,02,01,23,54,-0.90
2022,02,01,23,55,-1.10
2022,02,01,23,56,-1.10
2022,02,01,23,57,-1.20
2022,02,01,23,58,-1.10
2022,02,01,23,59,-1.50
